TimeEST,TemperatureF,Dew PointF,Humidity,Sea Level PressureIn,VisibilityMPH,Wind Direction,Wind SpeedMPH,Gust SpeedMPH,PrecipitationIn,Events,Conditions,WindDirDegrees,DateUTC
12:18 AM,64.4,62.6,94,30.08,9.0,NW,8.1,-,N/A,,Mostly Cloudy,320,2012-12-14 05:18:00
12:53 AM,64.9,63.0,93,30.08,10.0,NNW,8.1,-,N/A,,Scattered Clouds,330,2012-12-14 05:53:00
1:13 AM,64.4,62.6,94,30.08,10.0,NW,4.6,-,N/A,,Mostly Cloudy,320,2012-12-14 06:13:00
1:53 AM,64.9,62.1,90,30.07,10.0,NW,6.9,-,N/A,,Mostly Cloudy,320,2012-12-14 06:53:00
2:53 AM,64.9,62.1,90,30.06,10.0,NW,6.9,-,N/A,,Mostly Cloudy,320,2012-12-14 07:53:00
3:53 AM,64.9,62.1,90,30.06,10.0,NNW,8.1,-,N/A,,Mostly Cloudy,330,2012-12-14 08:53:00
4:53 AM,64.9,62.1,90,30.06,10.0,NNW,9.2,-,N/A,,Mostly Cloudy,330,2012-12-14 09:53:00
5:53 AM,64.0,62.1,93,30.07,10.0,NW,5.8,-,N/A,,Partly Cloudy,320,2012-12-14 10:53:00
6:53 AM,64.0,62.1,93,30.09,10.0,NNW,6.9,-,N/A,,Scattered Clouds,330,2012-12-14 11:53:00
7:53 AM,64.9,63.0,93,30.10,10.0,NNW,8.1,-,N/A,,Scattered Clouds,340,2012-12-14 12:53:00
8:53 AM,68.0,63.0,84,30.11,10.0,NNW,4.6,-,N/A,,Mostly Cloudy,340,2012-12-14 13:53:00
9:53 AM,72.0,64.9,78,30.13,10.0,North,8.1,-,N/A,,Overcast,350,2012-12-14 14:53:00
10:53 AM,77.0,63.0,62,30.12,10.0,NE,15.0,-,0.00,,Overcast,50,2012-12-14 15:53:00
11:53 AM,73.9,66.0,76,30.11,10.0,ENE,6.9,-,0.01,Rain,Light Rain,70,2012-12-14 16:53:00
12:27 PM,71.6,66.2,83,30.10,2.5,North,15.0,20.7,0.08,Rain,Rain,10,2012-12-14 17:27:00
12:29 PM,71.6,66.2,83,30.09,3.0,NNE,15.0,20.7,0.09,Rain,Rain,20,2012-12-14 17:29:00
12:53 PM,73.9,66.9,79,30.08,10.0,ENE,12.7,16.1,0.10,,Mostly Cloudy,60,2012-12-14 17:53:00
1:33 PM,69.8,64.4,83,30.07,4.0,NNE,11.5,28.8,0.09,Rain,Heavy Rain,30,2012-12-14 18:33:00
1:48 PM,73.4,64.4,73,30.07,7.0,NE,12.7,-,0.11,,Overcast,50,2012-12-14 18:48:00
1:53 PM,73.9,66.0,76,30.07,7.0,NE,13.8,-,0.11,,Overcast,50,2012-12-14 18:53:00
2:53 PM,75.0,62.1,64,30.06,10.0,NE,12.7,20.7,N/A,,Mostly Cloudy,40,2012-12-14 19:53:00
3:53 PM,75.0,61.0,62,30.05,10.0,NE,12.7,-,N/A,,Mostly Cloudy,40,2012-12-14 20:53:00
4:53 PM,75.0,63.0,66,30.05,10.0,ENE,10.4,-,N/A,,Mostly Cloudy,60,2012-12-14 21:53:00
5:53 PM,73.0,61.0,66,30.06,10.0,NE,8.1,-,N/A,,Mostly Cloudy,40,2012-12-14 22:53:00
6:53 PM,73.9,62.1,66,30.06,10.0,NE,11.5,-,N/A,,Partly Cloudy,50,2012-12-14 23:53:00
7:53 PM,73.9,62.1,66,30.08,10.0,ENE,11.5,-,N/A,,Partly Cloudy,60,2012-12-15 00:53:00
8:53 PM,73.9,63.0,68,30.08,10.0,ENE,9.2,-,N/A,,Scattered Clouds,70,2012-12-15 01:53:00
9:53 PM,73.9,63.0,68,30.09,10.0,ENE,10.4,-,N/A,,Scattered Clouds,60,2012-12-15 02:53:00
10:53 PM,73.9,62.1,66,30.09,10.0,East,10.4,-,N/A,,Scattered Clouds,80,2012-12-15 03:53:00
11:53 PM,73.9,63.0,68,30.08,10.0,East,10.4,-,N/A,,Scattered Clouds,80,2012-12-15 04:53:00